Terminal Aerodrome Forecast
Issued by NWS Twin Cities, MN

Home | Current Version | Previous Version | Graphics & Text | Print | Product List | Glossary On
Versions: 1 2 3 4 5 6 7 8 9 10 11 12 13 14 15 16 17 18
000
FTUS43 KMPX 271629 AAA
TAFSTC
TAF AMD
KSTC 271629Z 2716/2812 26007KT P6SM SKC
     FM272000 28009KT P6SM SCT080
     FM280000 VRB02KT P6SM SKC
     FM281000 11003KT P6SM BKN080=

USA.gov is the U.S. government's official web portal to all federal, state and local government web resources and services.